Farmingdale, NY

10:07 AM EDT on September 21, 2017 (GMT -0400)
Republic

Weather History for KFRG - September, 2013

Change the Weather History Date:

Wednesday, September 25, 2013

  Actual Average Record
Temperature  
Mean Temperature 62 °F -  
Max Temperature 73 °F 68 °F 87 °F (2010)
Min Temperature 50 °F 53 °F 41 °F (1997)
Degree Days  
Heating Degree Days 4    
Growing Degree Days 12 (Base 50)    
Moisture  
Dew Point 46 °F    
Average Humidity 60    
Maximum Humidity 83    
Minimum Humidity 37    
Precipitation  
Precipitation 0.00 in - - ()
Sea Level Pressure  
Sea Level Pressure 29.93 in    
Wind  
Wind Speed 4 mph (NNW)    
Max Wind Speed 8 mph    
Max Gust Speed -    
Visibility 10 miles    
Events      
Averages and records for this station are not official NWS values.
T = Trace of Precipitation, MM = Missing Value Source: NWS Daily Summary

Daily Weather History Graph

Daily Weather History Graph

Search for Another Location

Airport or City:

Trip Planner

Search our weather history database for the weather conditions in past years. The results will help you decide how hot, cold, wet, or windy it might be!

Date:

Astronomy

Sep. 25, 2013 Rise Set
Actual Time 6:44 AM EDT 6:45 PM EDT
Civil Twilight 6:17 AM EDT 7:12 PM EDT
Nautical Twilight 5:45 AM EDT 7:44 PM EDT
Astronomical Twilight 5:12 AM EDT 8:16 PM EDT
Moon 10:47 PM EDT (9/25) 12:49 PM EDT (9/25)
Length of Visible Light 12h 55m
Length of Day
12h 01m
Waning Gibbous, 64% of the Moon is Illuminated
Sep 25
Waning Gibbous
Sep 26
Last Quarter
Oct 4
New
Oct 11
First Quarter
Oct 18
Full

Hourly Weather History & Observations

Time (EDT) Temp. Dew Point Humidity Pressure Visibility Wind Dir Wind Speed Gust Speed Precip Events Conditions
12:53 AM 54.0 °F 45.0 °F 72% 29.94 in 10.0 mi North 5.8 mph - N/A   Clear
1:53 AM 55.9 °F 44.1 °F 64% 29.94 in 10.0 mi North 5.8 mph - N/A   Clear
2:53 AM 54.0 °F 45.0 °F 72% 29.94 in 10.0 mi North 5.8 mph - N/A   Clear
3:53 AM 51.1 °F 45.0 °F 80% 29.94 in 10.0 mi NNE 4.6 mph - N/A   Clear
4:53 AM 50.0 °F 44.1 °F 80% 29.94 in 10.0 mi North 3.5 mph - N/A   Clear
5:53 AM 51.1 °F 46.0 °F 83% 29.95 in 10.0 mi Calm Calm - N/A   Clear
6:53 AM 50.0 °F 45.0 °F 83% 29.95 in 10.0 mi Calm Calm - N/A   Clear
7:53 AM 54.0 °F 46.9 °F 77% 29.95 in 9.0 mi NNW 3.5 mph - N/A   Clear
8:53 AM 59.0 °F 46.0 °F 62% 29.96 in 10.0 mi North 6.9 mph - N/A   Clear
9:53 AM 62.1 °F 45.0 °F 53% 29.96 in 10.0 mi North 6.9 mph - N/A   Clear
10:53 AM 66.0 °F 44.1 °F 45% 29.95 in 10.0 mi NW 4.6 mph - N/A   Clear
11:53 AM 66.9 °F 44.1 °F 44% 29.94 in 10.0 mi Variable 4.6 mph - N/A   Clear
12:53 PM 69.1 °F 42.1 °F 38% 29.93 in 10.0 mi WNW 6.9 mph - N/A   Clear
1:53 PM 71.1 °F 44.1 °F 38% 29.91 in 10.0 mi Variable 5.8 mph - N/A   Clear
2:53 PM 71.1 °F 44.1 °F 38% 29.89 in 10.0 mi North 8.1 mph - N/A   Clear
3:53 PM 73.0 °F 45.0 °F 37% 29.88 in 10.0 mi Variable 4.6 mph - N/A   Clear
4:53 PM 70.0 °F 45.0 °F 41% 29.89 in 10.0 mi Calm Calm - N/A   Clear
5:53 PM 69.1 °F 44.1 °F 40% 29.89 in 10.0 mi NNW 4.6 mph - N/A   Clear
6:53 PM 66.9 °F 46.0 °F 47% 29.89 in 10.0 mi North 5.8 mph - N/A   Clear
7:53 PM 63.0 °F 48.0 °F 58% 29.91 in 10.0 mi Calm Calm - N/A   Clear
8:53 PM 62.1 °F 51.1 °F 67% 29.92 in 10.0 mi Calm Calm - N/A   Clear
9:53 PM 60.1 °F 51.1 °F 72% 29.93 in 10.0 mi Calm Calm - N/A   Clear
10:53 PM 59.0 °F 51.1 °F 75% 29.94 in 10.0 mi NW 3.5 mph - N/A   Clear
11:53 PM 55.9 °F 50.0 °F 80% 29.94 in 10.0 mi Calm Calm - N/A   Clear